| time (UTC) | temp F | wind direction | speed knots | gust knots | rain 1hr in | rain 24hr in | rain mn in | humidity % | barometer mb |
| 20260508181541 | 54 | 53 | 10.4 | 12.2 | 0.00 | 0.34 | 0.00 | 55 | 1001.7 |
| 20260508180030 | 53 | 68 | 7.8 | 12.2 | 0.00 | 0.34 | 0.00 | 58 | 1002.1 |
| 20260508174531 | 53 | 53 | 5.2 | 13.9 | 0.00 | 0.34 | 0.00 | 58 | 1002.0 |
| 20260508173028 | 53 | 55 | 10.4 | 13.9 | 0.00 | 0.34 | 0.00 | 59 | 1002.2 |
| 20260508171526 | 51 | 57 | 9.6 | 13.0 | 0.00 | 0.34 | 0.00 | 66 | 1002.3 |
| 20260508170023 | 51 | 43 | 7.8 | 9.6 | 0.00 | 0.34 | 0.00 | 68 | 1002.7 |
| 20260508164522 | 50 | 34 | 8.7 | 10.4 | 0.00 | 0.34 | 0.00 | 69 | 1002.6 |
| 20260508163021 | 50 | 46 | 8.7 | 11.3 | 0.00 | 0.34 | 0.00 | 71 | 1002.6 |
| 20260508161534 | 49 | 28 | 5.2 | 7.8 | 0.00 | 0.34 | 0.00 | 76 | 1002.4 |
| 20260508160018 | 51 | 33 | 5.2 | 9.6 | 0.00 | 0.34 | 0.00 | 74 | 1002.4 |
| 20260508154520 | 49 | 42 | 5.2 | 7.8 | 0.00 | 0.34 | 0.00 | 76 | 1002.7 |
| 20260508153030 | 50 | 41 | 7.8 | 10.4 | 0.00 | 0.34 | 0.00 | 74 | 1002.5 |
| 20260508151514 | 50 | 51 | 8.7 | 10.4 | 0.00 | 0.34 | 0.00 | 75 | 1002.4 |
| 20260508150014 | 50 | 57 | 8.7 | 13.0 | 0.00 | 0.34 | 0.00 | 75 | 1002.4 |
| 20260508144511 | 50 | 49 | 9.6 | 12.2 | 0.00 | 0.34 | 0.00 | 76 | 1002.6 |
| 20260508143009 | 50 | 40 | 10.4 | 12.2 | 0.00 | 0.34 | 0.00 | 76 | 1002.5 |
| 20260508141508 | 49 | 54 | 9.6 | 12.2 | 0.00 | 0.34 | 0.00 | 81 | 1002.6 |
| 20260508140007 | 49 | 39 | 8.7 | 10.4 | 0.00 | 0.34 | 0.00 | 83 | 1002.8 |
| 20260508134503 | 49 | 34 | 7.0 | 11.3 | 0.00 | 0.34 | 0.00 | 84 | 1003.1 |
| 20260508133105 | 49 | 63 | 4.3 | 9.6 | 0.00 | 0.34 | 0.00 | 87 | 1003.3 |
| 20260508131557 | 47 | 57 | 6.1 | 8.7 | 0.00 | 0.34 | 0.00 | 89 | 1003.4 |
| 20260508130057 | 46 | 50 | 2.6 | 7.8 | 0.00 | 0.34 | 0.00 | 92 | 1003.2 |
| 20260508124555 | 45 | 55 | 4.3 | 7.0 | 0.00 | 0.34 | 0.00 | 93 | 1003.0 |
| 20260508123054 | 45 | 48 | 6.1 | 9.6 | 0.00 | 0.34 | 0.00 | 93 | 1003.1 |
| 20260508121552 | 45 | 68 | 4.3 | 8.7 | 0.00 | 0.34 | 0.00 | 94 | 1003.3 |
| 20260508120100 | 44 | 42 | 7.8 | 9.6 | 0.00 | 0.34 | 0.00 | 95 | 1003.1 |
| 20260508114559 | 44 | 47 | 3.5 | 6.1 | 0.00 | 0.34 | 0.00 | 96 | 1003.6 |
| 20260508113050 | 43 | 49 | 2.6 | 5.2 | 0.00 | 0.34 | 0.00 | 97 | 1003.6 |
| 20260508111647 | 43 | 73 | 0.0 | 3.5 | 0.00 | 0.34 | 0.00 | 97 | 1003.4 |
| 20260508110049 | 43 | 30 | 0.9 | 2.6 | 0.00 | 0.34 | 0.00 | 97 | 1003.4 |
| 20260508104545 | 43 | 33 | 2.6 | 3.5 | 0.00 | 0.34 | 0.00 | 97 | 1003.5 |
| 20260508103048 | 42 | 43 | 1.7 | 3.5 | 0.00 | 0.34 | 0.00 | 97 | 1003.9 |
| 20260508101543 | 42 | 40 | 2.6 | 4.3 | 0.00 | 0.34 | 0.00 | 98 | 1003.7 |
| 20260508100059 | 42 | 46 | 3.5 | 6.1 | 0.00 | 0.34 | 0.00 | 98 | 1003.6 |
| 20260508094542 | 42 | 56 | 3.5 | 8.7 | 0.00 | 0.34 | 0.00 | 98 | 1003.6 |
| 20260508093040 | 42 | 47 | 4.3 | 8.7 | 0.00 | 0.34 | 0.00 | 98 | 1003.4 |
| 20260508091549 | 42 | 68 | 4.3 | 9.6 | 0.00 | 0.34 | 0.00 | 97 | 1003.3 |
| 20260508090041 | 43 | 61 | 6.1 | 9.6 | 0.00 | 0.34 | 0.00 | 98 | 1003.3 |
| 20260508084532 | 43 | 53 | 7.0 | 9.6 | 0.00 | 0.35 | 0.00 | 98 | 1003.2 |
| 20260508083031 | 43 | 101 | 2.6 | 7.8 | 0.00 | 0.35 | 0.00 | 98 | 1003.2 |
| 20260508081531 | 44 | 65 | 2.6 | 11.3 | 0.00 | 0.35 | 0.00 | 98 | 1002.8 |
| 20260508080030 | 44 | 66 | 5.2 | 12.2 | 0.00 | 0.35 | 0.00 | 98 | 1002.8 |
| 20260508074533 | 45 | 53 | 7.8 | 11.3 | 0.00 | 0.37 | 0.00 | 98 | 1002.6 |
| 20260508073026 | 46 | 67 | 9.6 | 12.2 | 0.00 | 0.37 | 0.00 | 99 | 1002.6 |
| 20260508071532 | 44 | 113 | 0.0 | 1.7 | 0.00 | 0.37 | 0.00 | 98 | 1002.6 |
| 20260508070024 | 44 | 113 | 0.0 | 1.7 | 0.00 | 0.37 | 0.00 | 98 | 1002.5 |
| 20260508064528 | 44 | 113 | 0.0 | 0.9 | 0.00 | 0.37 | 0.00 | 98 | 1002.5 |
| 20260508063023 | 44 | 113 | 0.0 | 1.7 | 0.00 | 0.37 | 0.00 | 98 | 1002.6 |
| 20260508061522 | 43 | 250 | 0.9 | 2.6 | 0.00 | 0.37 | 0.00 | 98 | 1002.7 |
| 20260508060026 | 44 | 250 | 0.0 | 1.7 | 0.00 | 0.37 | 0.00 | 98 | 1002.6 |
| 20260508054551 | 44 | 250 | 0.9 | 2.6 | 0.00 | 0.37 | 0.00 | 97 | 1002.4 |
| 20260508053020 | 45 | 250 | 0.0 | 0.9 | 0.00 | 0.37 | 0.00 | 98 | 1002.6 |
| 20260508051518 | 45 | 250 | 0.0 | 0.9 | 0.00 | 0.37 | 0.00 | 98 | 1002.1 |
| 20260508050022 | 45 | 250 | 0.0 | 1.7 | 0.00 | 0.37 | 0.00 | 98 | 1002.3 |
| 20260508044515 | 45 | 250 | 1.7 | 3.5 | 0.00 | 0.37 | 0.00 | 97 | 1002.4 |
| 20260508043014 | 45 | 159 | 0.9 | 4.3 | 0.00 | 0.37 | 0.00 | 98 | 1002.6 |
| 20260508041514 | 45 | 202 | 1.7 | 3.5 | 0.00 | 0.37 | 0.00 | 98 | 1002.6 |
| 20260508040013 | 44 | 170 | 0.0 | 3.5 | 0.00 | 0.37 | 0.00 | 97 | 1002.8 |
| 20260508034512 | 45 | 209 | 0.9 | 4.3 | 0.00 | 0.37 | 0.00 | 97 | 1002.9 |
| 20260508033013 | 46 | 259 | 3.5 | 6.1 | 0.00 | 0.37 | 0.00 | 96 | 1003.2 |
| 20260508031507 | 46 | 180 | 2.6 | 4.3 | 0.00 | 0.37 | 0.00 | 98 | 1003.2 |
| 20260508030002 | 44 | 218 | 2.6 | 6.1 | 0.00 | 0.37 | 0.37 | 98 | 1003.3 |
| 20260508024501 | 45 | 215 | 2.6 | 4.3 | 0.00 | 0.37 | 0.37 | 97 | 1003.1 |
| 20260508023000 | 46 | 240 | 1.7 | 4.3 | 0.00 | 0.37 | 0.37 | 97 | 1003.1 |
| 20260508021601 | 47 | 202 | 3.5 | 6.1 | 0.00 | 0.37 | 0.37 | 97 | 1002.7 |
| 20260508020108 | 47 | 205 | 4.3 | 6.1 | 0.00 | 0.37 | 0.37 | 97 | 1003.0 |
| 20260508014620 | 45 | 194 | 3.5 | 6.1 | 0.00 | 0.37 | 0.37 | 97 | 1003.2 |
| 20260508013100 | 45 | 215 | 2.6 | 3.5 | 0.00 | 0.37 | 0.37 | 96 | 1003.0 |
| 20260508011612 | 45 | 201 | 2.6 | 4.3 | 0.00 | 0.37 | 0.37 | 97 | 1003.0 |
| 20260508010054 | 44 | 242 | 3.5 | 6.1 | 0.00 | 0.37 | 0.37 | 96 | 1003.2 |
| 20260508004555 | 45 | 207 | 3.5 | 6.1 | 0.00 | 0.37 | 0.37 | 95 | 1003.6 |
| 20260508003053 | 46 | 257 | 6.1 | 7.0 | 0.00 | 0.37 | 0.37 | 95 | 1003.4 |
| 20260508001551 | 49 | 222 | 5.2 | 8.7 | 0.00 | 0.37 | 0.37 | 95 | 1003.1 |
| 20260508000050 | 50 | 169 | 2.6 | 11.3 | 0.00 | 0.37 | 0.37 | 96 | 1003.3 |
| 20260507234549 | 50 | 195 | 5.2 | 7.8 | 0.00 | 0.37 | 0.37 | 96 | 1003.3 |
| 20260507233049 | 50 | 201 | 6.1 | 10.4 | 0.00 | 0.37 | 0.37 | 96 | 1003.5 |
| 20260507231552 | 50 | 200 | 7.0 | 13.0 | 0.00 | 0.37 | 0.37 | 96 | 1003.5 |
| 20260507230048 | 50 | 190 | 7.0 | 13.0 | 0.00 | 0.37 | 0.37 | 96 | 1003.8 |
| 20260507224549 | 50 | 206 | 7.0 | 9.6 | 0.01 | 0.37 | 0.37 | 96 | 1003.5 |
| 20260507223047 | 49 | 205 | 4.3 | 8.7 | 0.01 | 0.37 | 0.37 | 96 | 1003.8 |
| 20260507221546 | 49 | 232 | 7.0 | 10.4 | 0.01 | 0.37 | 0.37 | 96 | 1003.9 |
| 20260507220045 | 50 | 184 | 3.5 | 11.3 | 0.01 | 0.37 | 0.37 | 95 | 1004.0 |
| 20260507214548 | 49 | 236 | 7.0 | 13.0 | 0.00 | 0.36 | 0.36 | 94 | 1004.0 |
| 20260507213043 | 49 | 172 | 3.5 | 12.2 | 0.02 | 0.36 | 0.36 | 93 | 1004.0 |
| 20260507211545 | 50 | 219 | 4.3 | 27.8 | 0.06 | 0.36 | 0.36 | 94 | 1003.1 |
| 20260507210041 | 50 | 140 | 15.6 | 24.3 | 0.09 | 0.36 | 0.36 | 94 | 1003.4 |
| 20260507204539 | 50 | 150 | 6.1 | 15.6 | 0.13 | 0.36 | 0.36 | 94 | 1004.1 |
| 20260507203038 | 49 | 223 | 3.5 | 8.7 | 0.12 | 0.34 | 0.34 | 94 | 1004.8 |
| 20260507201535 | 50 | 217 | 6.1 | 19.1 | 0.14 | 0.31 | 0.31 | 94 | 1004.9 |
| 20260507200034 | 50 | 184 | 9.6 | 19.1 | 0.15 | 0.27 | 0.27 | 96 | 1005.3 |
| 20260507194533 | 46 | 232 | 13.0 | 22.6 | 0.13 | 0.23 | 0.23 | 95 | 1006.4 |
| 20260507193034 | 48 | 223 | 9.6 | 21.7 | 0.17 | 0.21 | 0.21 | 90 | 1006.1 |
| 20260507191533 | 53 | 186 | 9.6 | 21.7 | 0.13 | 0.17 | 0.17 | 93 | 1005.7 |
| 20260507190028 | 53 | 157 | 12.2 | 19.1 | 0.09 | 0.12 | 0.12 | 93 | 1005.7 |
| 20260507184527 | 53 | 158 | 13.0 | 20.9 | 0.06 | 0.09 | 0.09 | 93 | 1006.2 |
| 20260507183040 | 53 | 207 | 11.3 | 21.7 | 0.01 | 0.04 | 0.04 | 92 | 1006.7 |